{"data":{"norad_id":57680,"intl_designator":"2023-124T","name":"STARLINK-30283","alt_names":[],"object_type":"PAYLOAD","status":"ACTIVE","operator":null,"country":"US","launch_date":"2023-08-22","launch_site_code":"AFWTR","launch_vehicle":null,"mission":null,"orbit_class":"UNKNOWN","rcs_meters":null,"size_class":null,"mass_kg":null,"dimensions":null,"purposes":["comms"],"wikipedia_slug":null,"has_3d_model":false,"image_url":null,"decayed_at":null,"tle_current":{"epoch":"2026-09-20T22:00:03.000096Z","epoch_age_seconds":95660,"freshness":"FRESH","line1":"1 57680U 23124T   26263.91670139  .00236513  00000+0  24572-2 0  9994","line2":"2 57680  53.1603  14.4341 0000935  72.0389   7.2402 15.63344176  5841","mean_motion":15.63344176,"eccentricity":9.35e-5,"inclination_deg":53.1603,"raan_deg":14.4341,"arg_perigee_deg":72.0389,"mean_anomaly_deg":7.2402,"bstar":0.0024572,"rev_number":584,"period_min":92.110235359971,"perigee_km":377.37338851549,"apogee_km":378.63678708591,"semimajor_km":6756.1420878007,"source":"CELESTRAK","updated_at":"2026-09-21T09:00:33.672813Z"}}}